Location: Narrabri
(30.3170°S, 149.7830°E)
Time: 23:48:47
(UTC+11:00)

Vanguard 1 Rocket - Visible Passes

Search period start: 20 January 2018 00:00
Search period end: 30 January 2018 00:00
Orbit: 656 x 4222 km, 34.3° (Epoch: 19 January)

Date Brightness Start Highest point End Pass type
(mag) Time Alt. Az. Time Alt. Az. Time Alt. Az.
20 Jan 10.4 00:40:21 10° WSW 01:03:19 88° NNW 01:28:46 10° ENE visible
20 Jan 10.4 03:11:49 10° WSW 03:36:11 52° NW 03:56:08 10° NNE visible
20 Jan 11.0 05:53:18 10° W 06:04:29 15° NW 06:13:55 10° NNW visible
20 Jan 10.1 21:00:01 10° W 21:13:39 83° S 21:38:41 10° E visible
20 Jan 10.4 23:27:26 10° WSW 23:47:21 84° SSE 00:14:13 10° ENE visible
21 Jan 10.4 01:57:09 10° WSW 02:21:33 68° NNW 02:44:35 10° NE visible
21 Jan 10.7 04:32:08 10° W 04:51:50 29° NW 05:07:38 10° N visible
21 Jan 10.3 22:15:10 10° W 22:31:45 79° S 22:58:26 10° E visible
22 Jan 10.4 00:43:34 10° WSW 01:06:07 81° NNW 01:31:38 10° ENE visible
22 Jan 10.5 03:15:14 10° WSW 03:38:21 44° NW 03:58:08 10° NNE visible
22 Jan 10.1 21:03:29 10° W 21:16:57 79° S 21:41:48 10° E visible
22 Jan 10.3 23:30:46 10° WSW 23:50:26 88° SSE 00:17:17 10° ENE visible
23 Jan 10.4 02:00:22 10° WSW 02:23:56 59° NW 02:46:56 10° NE visible
23 Jan 10.9 04:36:59 10° W 04:53:55 22° NW 05:08:19 10° N visible
23 Jan 10.2 22:18:37 10° W 22:35:01 81° S 23:01:36 10° E visible
24 Jan 10.3 00:46:47 10° WSW 01:08:48 74° NNW 01:34:17 10° NE visible
24 Jan 10.7 03:18:58 10° WSW 03:46:53 33° NNW 03:59:43 10° NNE visible
24 Jan 10.0 21:06:59 10° W 21:20:18 78° S 21:44:58 10° E visible
24 Jan 10.3 23:34:05 10° WSW 23:53:23 87° NNW 00:08:42 36° ENE visible
25 Jan 10.5 02:03:43 10° WSW 02:43:55 21° NNE 02:48:59 10° NNE visible
25 Jan 11.1 05:01:31 15° NW 05:01:31 15° NW 05:07:44 10° NNW visible
25 Jan 9.7 19:55:49 10° W 20:06:31 80° S 20:28:02 10° E visible
25 Jan 10.2 22:22:02 10° WSW 22:38:12 84° SSE 22:58:38 22° ENE visible
26 Jan 10.4 00:50:02 10° WSW 01:11:23 66° NNW 01:15:40 61° N visible
26 Jan 11.2 03:23:11 10° W 03:56:42 17° N 04:00:48 10° N visible
26 Jan 10.0 21:10:29 10° W 21:23:38 78° S 21:48:07 10° E visible
26 Jan 10.2 23:37:22 10° WSW 23:56:15 80° NNW 00:06:20 50° NE visible
27 Jan 10.8 02:07:18 10° WSW 02:51:11 - NNE 02:23:25 40° WNW visible
27 Jan11.405:08:37NNW05:08:37NNW04:40:32Wvisible
27 Jan 9.7 19:59:21 10° W 20:09:54 77° S 20:31:09 10° E visible
27 Jan 10.1 22:25:25 10° WSW 22:41:19 89° SSE 22:57:24 31° ENE visible
28 Jan 10.4 00:53:24 10° WSW 01:13:56 57° NW 01:14:31 57° NNW visible
28 Jan 11.4 03:28:13 10° W 04:02:39 - N 03:31:38 14° W visible
28 Jan 9.9 21:13:57 10° WSW 21:26:56 80° S 21:48:42 15° E visible
28 Jan 10.2 23:40:41 10° WSW 23:59:02 71° NNW 00:05:51 57° NNE visible
29 Jan 11.0 02:11:12 10° W 02:56:23 - NNE 02:22:59 30° WNW visible
29 Jan 9.7 20:02:52 10° W 20:13:18 75° S 20:34:18 10° E visible
29 Jan 10.0 22:28:46 10° WSW 22:44:21 85° NNW 22:57:22 39° ENE visible
